Location: ???????
(54.9996°N, 37.9529°E)
Time: 11:16:03
(UTC+00:00)

DMSP B5D2-2 - Pass Details

Date: 14 April 2024
Orbit: 788 x 802 km, 98.3° (Epoch: 18 May)

Event Time Altitude Azimuth Distance (km) Brightness Sun altitude
Rises 01:42:04 0° 180° (S) 3,275 7.0 -6.8°
Reaches altitude 10° 01:44:28 10° 186° (S) 2,350 6.2 -6.4°
Maximum altitude 01:49:29 48° 261° (W) 1,026 4.3 -5.8°
Drops below altitude 10° 01:54:32 10° 336° (NNW) 2,365 6.6 -5.1°
Sets 01:56:57 0° 342° (NNW) 3,299 7.4 -4.8°
